Wind_Speed
11 10 9 8 8 8 9 9 10 11 11 12 13 14 15 16 19 21 23 26 28 30 32 35 37 39 41 43 46 48 50 52 55 57 60 64 67 70 73 77 82 86 89 91
10 9 8 7 6 6 7 8 9 9 11 12 13 14 15 17 20 22 24 27 29 31 33 35 37 40 42 44 46 48 50 53 55 58 61 64 68 71 74 78 83 86 89 88
9 8 7 6 5 5 5 7 8 8 9 11 13 13 15 17 20 22 25 27 29 32 34 36 38 41 43 45 47 49 51 53 56 59 62 65 68 71 75 79 83 86 87 84
9 8 7 6 5 4 4 6 7 7 8 9 11 13 15 18 20 23 25 28 30 33 35 38 40 42 44 47 49 51 53 55 57 60 63 66 69 72 75 79 83 85 84 82
10 8 7 6 5 5 4 5 6 7 8 10 12 13 15 18 20 23 26 28 31 34 37 40 42 44 47 49 52 54 55 57 59 61 64 67 70 72 76 80 82 83 81 79
11 10 9 8 7 6 6 6 7 8 8 10 13 15 17 19 21 24 26 29 32 35 38 41 44 46 49 52 55 57 59 60 61 63 66 68 70 73 76 79 81 81 79 76
12 11 10 10 9 8 8 8 9 9 10 11 14 15 17 20 22 25 28 30 33 36 39 42 45 48 51 54 57 59 62 63 64 65 67 69 71 73 76 79 80 80 77 74
14 13 12 12 11 11 10 11 11 12 12 13 15 16 18 20 23 26 29 32 35 37 40 43 47 50 53 56 59 61 64 65 66 67 69 71 72 73 76 78 79 79 76 72
16 15 15 14 14 13 13 13 13 14 15 15 17 18 19 22 24 27 30 33 36 39 41 45 48 51 54 57 60 63 65 67 69 69 70 72 72 74 76 78 78 77 74 71
18 17 16 16 16 16 16 16 16 16 18 19 20 22 25 27 29 31 32 34 36 39 42 46 49 52 55 58 61 64 67 69 70 71 72 73 73 74 75 77 77 75 73 70
20 19 19 19 18 18 18 19 19 20 21 23 24 24 27 29 31 34 36 37 39 42 44 47 50 53 56 59 62 65 68 70 71 73 73 73 73 74 75 76 76 74 72 69
22 22 22 21 22 22 22 22 22 23 24 25 28 27 29 31 33 35 37 39 41 43 45 48 51 54 57 60 63 66 68 70 72 73 74 74 74 74 74 75 75 73 71 68
24 25 25 25 26 25 25 25 26 27 28 29 30 30 33 34 35 37 38 40 42 44 46 49 51 54 57 60 63 66 68 71 72 74 75 75 74 74 74 75 74 72 70 67
28 28 29 29 29 29 29 28 29 31 32 33 32 32 33 37 39 41 42 43 45 46 48 50 52 55 57 60 63 66 68 71 72 74 75 75 74 74 74 74 74 71 69 66
32 32 32 32 33 34 33 32 32 34 34 37 36 35 35 38 40 41 43 45 46 48 49 51 53 55 57 60 62 65 68 70 72 74 75 76 75 74 74 74 73 71 68 66
34 35 36 35 36 38 37 34 35 37 37 38 39 38 38 41 41 42 44 46 47 49 50 52 53 55 57 60 62 65 67 70 72 74 75 76 75 74 73 73 73 70 67 65
36 38 39 39 39 41 40 36 37 40 40 41 42 41 42 44 43 44 46 47 48 50 51 53 53 55 57 59 61 64 66 69 71 73 74 75 75 74 73 73 72 70 67 64
38 39 42 43 43 45 39 38 39 41 41 43 44 44 46 46 45 45 47 49 50 51 52 53 54 54 56 59 61 63 65 68 70 72 73 75 75 73 72 72 71 70 67 64
40 40 42 45 47 48 42 40 41 43 43 43 45 46 47 48 47 46 48 49 50 51 52 53 53 54 56 58 60 62 64 67 69 71 72 74 74 73 72 71 71 69 67 64
41 42 44 46 48 50 45 42 42 44 45 45 46 47 48 49 50 49 50 51 51 52 52 53 53 53 55 57 59 61 64 66 68 70 71 72 73 73 71 70 70 69 67 64
44 44 45 47 49 51 45 44 44 44 44 46 48 49 50 52 52 53 53 53 53 53 53 53 54 54 54 56 58 61 63 65 67 69 70 71 72 72 70 69 69 68 66 63
49 49 48 48 51 49 45 44 43 43 45 47 50 51 52 53 53 53 53 54 54 54 54 54 55 54 55 56 58 60 63 65 66 67 68 69 70 71 69 68 67 67 65 62
55 53 53 54 53 50 48 45 44 45 47 49 51 52 54 55 55 54 54 54 54 55 55 55 55 55 55 56 58 60 62 64 65 66 67 68 69 69 68 66 66 65 64 62
60 59 60 60 57 53 52 50 48 49 51 52 53 54 56 57 57 56 56 56 56 56 56 56 56 56 57 58 59 60 62 63 64 65 65 66 67 67 67 65 64 64 63 61
63 65 65 65 61 60 58 56 56 56 56 57 57 57 58 59 59 58 58 58 59 59 59 58 58 58 58 59 60 61 62 63 63 63 64 64 65 66 65 64 63 63 63 62
62 65 67 67 64 67 65 62 62 63 62 61 61 61 60 61 62 62 62 61 61 62 62 61 60 60 60 60 61 61 62 62 62 62 62 62 63 63 63 62 61 61 62 61
Wind_Direction
315 319 324 330 336 341 348 352 354 357 357 358 356 356 359 354 350 349 346 344 342 341 340 337 335 333 331 329 328 327 326 326 325 325 325 325 325 325 325 325 324 324 325 325
309 313 320 326 332 337 344 350 357 2 357 1 1 1 1 360 356 353 351 349 347 345 344 342 339 337 335 333 331 330 329 328 327 327 327 327 327 327 327 327 327 327 328 328
303 306 309 314 319 326 340 349 357 4 5 4 4 3 1 2 0 358 356 353 351 349 348 347 345 343 341 338 336 334 332 331 330 330 330 330 330 329 329 329 330 330 331 331
294 293 294 296 298 310 330 342 352 357 0 2 5 6 4 4 3 0 358 356 354 352 350 349 349 347 345 344 341 339 337 335 334 333 332 332 332 332 332 332 332 333 334 334
282 280 279 278 279 290 310 326 339 346 351 353 358 1 4 3 2 359 357 356 355 353 352 351 350 349 348 347 346 344 342 340 337 336 335 335 335 334 334 335 335 336 336 336
273 269 268 266 265 275 291 309 323 332 339 339 350 354 356 358 357 357 356 355 354 353 352 351 350 350 349 348 348 347 346 343 341 339 338 337 337 336 336 337 338 339 339 339
266 264 261 260 262 270 283 295 301 310 325 337 343 345 348 350 351 351 352 352 352 352 351 350 350 349 349 349 348 348 347 346 344 342 341 340 339 338 338 339 340 341 341 341
264 261 259 258 261 269 277 286 296 309 321 328 332 335 340 343 345 346 347 348 349 349 349 349 349 349 349 349 349 348 348 347 346 344 343 342 341 340 340 341 342 343 343 343
265 262 259 259 263 269 277 284 293 301 308 314 321 326 332 337 341 342 344 345 346 347 347 347 348 348 348 348 348 349 348 348 347 346 345 343 342 342 342 343 344 344 345 345
263 261 260 261 264 269 275 282 289 296 302 308 315 323 328 333 336 338 340 341 342 343 345 346 346 347 347 347 347 348 348 348 348 347 346 345 344 343 344 345 345 346 346 346
262 261 260 262 265 270 275 280 285 292 299 305 311 319 323 327 331 333 335 337 339 341 342 344 345 345 346 346 347 347 348 348 348 348 347 346 345 345 345 346 347 347 348 348
262 261 261 262 266 270 275 279 284 289 294 300 306 315 317 321 325 327 330 332 335 337 339 341 342 343 344 345 346 347 347 348 348 348 348 347 346 346 347 347 349 349 349 349
261 262 263 264 267 271 274 278 282 287 291 297 303 311 313 316 319 321 324 327 330 333 335 337 339 341 343 344 345 346 347 347 348 348 348 348 347 347 347 349 350 350 351 351
262 262 264 268 271 272 273 276 281 285 290 293 299 304 308 311 315 318 321 324 326 329 332 334 336 339 341 342 343 344 345 347 348 348 348 348 348 347 348 350 351 352 352 352
265 264 265 267 271 274 276 278 280 283 287 291 297 299 304 304 309 313 316 319 322 325 328 331 333 336 338 340 342 343 344 346 347 348 348 348 348 348 349 350 352 353 353 353
267 268 267 267 269 273 276 280 282 283 286 289 292 296 299 300 305 308 311 314 317 320 324 327 330 333 335 338 340 342 343 344 346 347 348 348 348 348 349 351 352 353 354 354
269 271 271 271 271 272 276 280 279 281 284 286 289 293 294 297 301 304 306 310 314 317 320 324 327 330 332 335 338 340 342 343 345 346 347 348 348 348 349 351 353 354 355 355
272 272 274 274 274 274 280 280 280 280 281 283 286 289 292 295 298 301 304 308 311 314 317 320 324 327 330 332 335 338 340 342 344 345 346 347 348 348 349 350 353 354 355 356
274 275 276 277 278 279 280 282 281 281 282 284 285 287 289 292 295 298 300 303 307 310 314 317 320 324 327 330 333 336 338 340 342 344 345 347 348 348 349 350 352 355 356 356
273 274 276 277 279 281 285 285 284 283 283 284 284 286 288 290 293 295 298 301 304 308 311 314 318 321 324 328 331 333 336 339 341 343 344 345 347 347 348 350 352 354 356 357
272 273 274 277 279 281 287 288 287 286 287 285 285 286 287 289 292 295 297 300 303 306 309 311 315 318 321 325 328 331 334 336 339 341 343 344 346 347 348 349 351 354 356 357
272 273 274 276 277 282 285 286 286 286 285 285 285 286 287 289 291 294 296 298 301 303 306 308 312 315 318 322 325 328 331 334 336 339 341 343 344 346 347 348 351 353 356 357
271 273 274 274 277 280 281 283 284 283 282 282 283 285 287 288 290 292 294 296 298 301 303 306 309 312 315 318 322 325 329 331 334 337 339 341 343 344 346 347 350 353 355 357
273 274 274 275 277 278 278 279 279 279 278 279 281 282 284 286 288 290 291 293 295 297 300 302 305 308 311 314 318 322 325 328 331 334 336 339 341 343 344 346 349 352 355 357
274 275 276 277 279 278 277 278 278 277 277 278 279 280 281 283 285 287 289 290 292 293 296 298 301 304 307 310 314 317 321 324 327 330 333 336 339 341 343 345 347 350 354 356
277 277 279 280 281 280 279 278 278 278 279 278 279 279 280 281 283 284 285 287 289 291 293 295 298 301 304 306 309 313 316 320 323 327 330 333 336 339 341 343 346 349 352 356
Height
5879 5878 5876 5874 5872 5870 5868 5866 5865 5863 5860 5858 5856 5853 5851 5848 5844 5841 5838 5834 5830 5826 5821 5815 5809 5803 5797 5790 5783 5776 5768 5759 5750 5740 5729 5718 5706 5692 5678 5662 5645 5626 5606 5585
5877 5876 5874 5872 5870 5869 5867 5866 5864 5862 5859 5856 5854 5851 5848 5845 5842 5839 5835 5831 5826 5822 5816 5811 5805 5798 5792 5784 5777 5769 5760 5751 5741 5730 5719 5707 5694 5680 5664 5648 5630 5610 5590 5568
5875 5874 5872 5871 5869 5868 5866 5865 5862 5860 5858 5855 5853 5850 5847 5844 5840 5836 5832 5828 5823 5818 5813 5807 5800 5793 5786 5778 5770 5761 5752 5742 5731 5720 5708 5695 5682 5667 5651 5634 5615 5595 5574 5553
5873 5871 5870 5869 5868 5867 5865 5863 5861 5859 5857 5854 5852 5849 5845 5841 5837 5834 5830 5825 5820 5814 5808 5802 5795 5788 5780 5772 5763 5754 5744 5733 5722 5710 5697 5684 5670 5655 5639 5621 5602 5582 5560 5540
5871 5869 5868 5867 5867 5865 5864 5862 5860 5858 5855 5853 5850 5847 5844 5839 5836 5832 5827 5822 5816 5810 5804 5797 5790 5782 5774 5765 5756 5746 5735 5724 5712 5700 5687 5673 5659 5643 5627 5609 5590 5569 5549 5528
5868 5867 5866 5866 5865 5863 5862 5861 5858 5856 5853 5851 5847 5844 5841 5836 5832 5828 5824 5818 5812 5806 5799 5792 5785 5777 5768 5759 5749 5738 5727 5715 5702 5689 5676 5662 5648 5632 5615 5597 5578 5558 5538 5519
5865 5865 5864 5863 5863 5861 5860 5859 5857 5854 5851 5848 5845 5841 5838 5833 5829 5824 5820 5814 5808 5802 5795 5788 5779 5771 5762 5752 5742 5730 5719 5707 5694 5680 5666 5652 5637 5621 5604 5586 5568 5548 5529 5511
5862 5863 5862 5861 5860 5859 5857 5856 5855 5852 5848 5845 5842 5838 5836 5831 5826 5821 5816 5810 5804 5797 5790 5782 5774 5765 5756 5745 5735 5723 5711 5699 5685 5671 5657 5643 5627 5611 5594 5576 5558 5539 5520 5502
5859 5859 5858 5857 5857 5856 5854 5852 5850 5848 5844 5842 5839 5836 5832 5827 5823 5818 5812 5806 5799 5792 5785 5777 5769 5759 5749 5739 5728 5716 5704 5691 5677 5663 5649 5634 5618 5602 5585 5568 5549 5530 5512 5495
5855 5855 5855 5854 5853 5852 5851 5849 5847 5844 5841 5837 5835 5830 5827 5821 5817 5812 5807 5801 5795 5788 5780 5772 5763 5753 5744 5733 5722 5710 5697 5684 5670 5656 5641 5626 5610 5594 5578 5560 5542 5523 5505 5488
5851 5851 5851 5850 5849 5848 5847 5845 5842 5839 5836 5832 5828 5828 5822 5816 5811 5806 5800 5795 5788 5782 5774 5765 5757 5747 5737 5727 5715 5703 5691 5677 5663 5649 5634 5619 5603 5587 5570 5553 5535 5517 5500 5483
5846 5846 5846 5846 5844 5843 5841 5839 5837 5835 5832 5827 5822 5824 5816 5811 5806 5801 5795 5789 5782 5775 5768 5759 5751 5741 5731 5721 5709 5697 5684 5671 5657 5642 5627 5612 5597 5581 5564 5547 5529 5512 5494 5478
5841 5841 5840 5840 5840 5838 5836 5834 5831 5828 5825 5821 5817 5818 5809 5805 5800 5795 5790 5784 5777 5770 5762 5753 5745 5735 5725 5715 5703 5691 5678 5665 5651 5637 5622 5606 5591 5575 5558 5542 5524 5507 5490 5474
5835 5835 5835 5834 5832 5831 5829 5828 5825 5821 5818 5815 5812 5810 5805 5797 5792 5787 5782 5776 5770 5763 5755 5747 5739 5729 5720 5709 5698 5686 5673 5660 5646 5631 5616 5601 5585 5570 5553 5537 5520 5503 5486 5471
5828 5828 5828 5826 5824 5822 5821 5821 5818 5814 5811 5807 5805 5802 5799 5792 5787 5781 5775 5769 5762 5756 5748 5740 5732 5723 5713 5703 5692 5680 5668 5654 5640 5626 5611 5596 5580 5565 5549 5532 5516 5499 5483 5467
5820 5820 5819 5819 5817 5813 5813 5814 5810 5806 5804 5800 5796 5794 5791 5784 5780 5775 5768 5762 5756 5749 5742 5734 5725 5717 5707 5697 5686 5675 5662 5649 5635 5621 5606 5591 5576 5560 5545 5529 5513 5496 5481 5465
5813 5811 5810 5809 5808 5805 5805 5807 5802 5798 5796 5792 5787 5786 5781 5777 5772 5767 5761 5755 5749 5742 5734 5727 5719 5710 5701 5691 5681 5669 5657 5644 5630 5616 5602 5587 5572 5557 5541 5525 5510 5494 5479 5464
5804 5802 5800 5798 5798 5794 5801 5797 5793 5789 5787 5783 5779 5776 5771 5767 5763 5759 5752 5746 5740 5734 5727 5720 5712 5703 5694 5685 5674 5663 5651 5639 5625 5612 5597 5583 5568 5553 5538 5522 5507 5492 5477 5463
5795 5793 5790 5788 5784 5783 5789 5787 5782 5778 5777 5774 5769 5766 5761 5757 5754 5751 5744 5738 5732 5726 5720 5712 5704 5696 5687 5678 5668 5657 5645 5633 5620 5607 5593 5579 5564 5550 5535 5520 5504 5490 5475 5461
5785 5783 5781 5778 5774 5772 5778 5776 5771 5768 5766 5764 5758 5755 5751 5746 5743 5741 5735 5730 5724 5718 5711 5704 5696 5688 5680 5671 5661 5651 5640 5628 5616 5603 5589 5575 5561 5546 5532 5517 5502 5488 5473 5459
5774 5772 5770 5767 5763 5762 5767 5763 5759 5757 5756 5751 5747 5743 5740 5735 5732 5728 5724 5719 5713 5707 5701 5694 5687 5680 5672 5663 5654 5644 5633 5622 5611 5598 5585 5572 5558 5544 5529 5515 5501 5486 5472 5458
5762 5760 5759 5757 5753 5756 5756 5752 5749 5746 5743 5739 5734 5731 5727 5724 5720 5716 5712 5707 5702 5696 5690 5684 5677 5670 5663 5655 5646 5637 5627 5617 5606 5594 5581 5568 5555 5541 5527 5513 5499 5485 5471 5457
5748 5749 5746 5744 5745 5746 5743 5740 5738 5734 5730 5726 5722 5719 5715 5711 5708 5704 5700 5695 5690 5685 5679 5673 5667 5660 5654 5646 5639 5630 5621 5611 5600 5589 5577 5564 5552 5539 5525 5511 5497 5484 5470 5457
5734 5734 5731 5730 5732 5733 5729 5727 5724 5720 5715 5713 5710 5706 5702 5697 5694 5691 5687 5683 5678 5673 5668 5662 5656 5650 5644 5637 5630 5623 5614 5604 5594 5584 5573 5561 5548 5536 5523 5510 5496 5483 5470 5456
5721 5718 5714 5714 5718 5715 5714 5712 5708 5704 5701 5699 5696 5693 5688 5683 5681 5677 5673 5669 5664 5660 5655 5650 5645 5640 5634 5628 5621 5614 5606 5598 5588 5578 5568 5556 5545 5533 5521 5508 5495 5482 5469 5456
5709 5704 5700 5697 5701 5694 5693 5695 5692 5687 5684 5682 5679 5677 5674 5669 5665 5662 5658 5655 5650 5646 5642 5638 5634 5629 5624 5618 5612 5605 5598 5590 5582 5573 5563 5552 5541 5529 5518 5505 5493 5480 5468 5455